Vorticity
3 10 5 3 5 3 3 2 3 4 4 4 1 3 5 4 4 7 5 3 3 2 1 3 11 7 4 5 3 3 0 1 2 6 3 7 3 4 4 3 2 3 4
6 6 9 3 4 4 4 2 4 2 4 5 2 2 5 4 4 6 7 4 2 3 0 3 8 5 4 3 2 3 1 1 2 6 5 6 4 4 4 4 4 3 4
10 6 7 5 5 3 3 4 2 3 4 4 5 1 3 5 3 4 6 6 4 4 1 1 5 7 4 2 2 2 2 1 1 5 8 2 7 4 4 5 3 3 4
-1 7 1 6 7 4 2 3 3 2 5 5 5 3 2 4 4 4 6 6 6 5 2 0 4 8 5 3 2 1 3 1 1 3 8 2 9 5 5 5 4 3 3
5 3 7 3 3 7 6 3 3 1 3 6 3 4 3 3 5 3 5 7 7 4 4 2 1 5 6 4 2 1 2 1 0 2 6 6 8 5 5 4 5 4 4
7 6 5 10 5 4 5 6 5 3 2 4 5 6 3 3 3 5 4 6 7 5 5 3 1 3 6 7 4 3 2 2 1 1 5 9 3 5 5 5 5 5 4
7 7 5 5 7 11 12 6 7 3 1 3 4 4 5 4 1 4 4 5 7 5 7 4 3 1 4 6 5 5 2 3 1 1 3 9 1 6 6 6 5 6 5
7 10 6 8 3 7 9 5 8 7 2 1 1 4 4 4 3 3 5 5 5 5 8 4 6 1 2 5 6 5 2 3 1 1 2 6 5 8 7 6 6 6 6
9 4 9 8 7 5 7 13 7 8 8 3 2 2 3 5 3 4 4 4 4 7 8 5 6 3 0 4 5 6 3 2 2 1 1 4 11 6 6 5 6 6 6
5 9 6 6 9 4 6 4 15 13 7 9 3 2 4 4 6 3 4 4 4 6 7 6 6 6 1 2 5 6 4 2 3 1 1 2 7 3 5 6 5 6 7
3 3 7 7 5 9 4 3 2 11 18 6 9 4 3 3 5 4 2 4 4 5 7 6 4 5 4 1 4 5 6 3 3 2 1 1 4 10 7 7 5 6 7
5 6 5 5 6 4 10 4 4 -0 3 14 5 8 3 4 5 4 3 4 3 4 9 6 5 4 6 2 2 7 6 6 2 2 1 1 3 5 7 5 6 6 6
7 2 6 7 4 7 5 8 3 5 5 6 15 5 3 4 7 3 2 4 3 4 7 9 6 4 7 3 3 4 4 9 2 3 2 1 2 4 11 6 5 6 5
5 5 5 7 5 6 7 5 7 3 5 10 -1 23 16 4 4 5 4 4 3 4 7 9 7 5 7 4 3 1 6 6 6 3 2 1 2 2 7 7 6 5 5
3 4 4 2 6 8 6 7 6 5 5 3 2 2 33 -11 4 4 4 5 4 3 5 8 7 5 6 5 4 3 6 5 8 3 3 2 2 2 4 15 6 5 5
5 4 3 3 4 5 11 7 6 8 4 3 9 35 16 21 -0 7 6 4 5 3 5 8 7 5 4 6 4 3 3 5 9 2 3 2 2 2 3 10 7 6 5
5 9 8 7 3 5 6 9 7 4 5 4 -1 0 51 46 -2 4 5 5 5 4 5 7 7 5 3 6 4 3 2 5 8 4 3 3 2 2 3 5 11 6 5
20 12 15 9 10 5 8 12 6 5 6 1 -1 2 -2 2 0 2 5 5 4 5 4 6 6 6 5 5 6 2 3 4 6 6 3 3 3 2 3 4 12 7 6
37 36 28 17 12 10 10 9 9 8 3 4 10 10 2 53 10 -1 4 5 4 5 4 5 6 6 5 3 4 4 2 3 5 7 4 3 3 2 3 3 5 11 7
34 37 33 32 24 10 11 11 11 7 3 3 9 -9 11 -3 18 1 3 7 6 5 4 5 6 6 7 4 2 3 1 3 3 3 5 3 4 3 3 3 3 10 7
28 26 34 27 38 17 7 8 10 7 5 1 -11 9 15 16 59 -0 2 5 6 4 5 5 6 6 6 6 3 1 1 5 4 5 6 4 4 3 3 3 4 6 13
26 29 24 29 37 27 13 4 8 7 6 2 3 2 16 -22 48 7 0 3 4 4 5 4 5 6 6 7 6 4 5 5 6 6 10 5 5 5 4 3 4 6 8
24 32 27 23 39 34 21 5 5 7 5 6 12 34 5 10 -16 19 -2 3 4 6 5 5 6 6 7 8 8 6 6 4 6 7 12 5 6 6 5 5 4 4 6
21 31 29 26 29 39 27 14 9 6 5 6 13 -44 35 23 6 40 5 3 4 3 6 4 6 6 8 8 7 6 5 4 6 6 7 6 6 7 6 6 2 3 4
26 25 32 34 28 42 30 14 13 3 8 9 -3 -6 -35 7 4 44 11 -1 -18 0 26 3 5 5 6 8 9 5 5 5 4 4 2 3 4 6 7 4 5 3 4
28 30 27 40 32 40 31 20 20 1 12 5 3 10 38 -24 23 -12 13 1 -10 23 8 5 4 6 6 7 7 5 4 5 8 8 7 7 2 1 3 3 4 4 4
Height
5819 5822 5822 5823 5826 5828 5831 5832 5834 5837 5840 5840 5843 5845 5846 5846 5848 5849 5850 5849 5851 5854 5855 5856 5857 5858 5859 5860 5860 5861 5861 5859 5857 5855 5854 5853 5851 5850 5848 5847 5845 5843 5840
5813 5815 5819 5819 5821 5823 5826 5827 5830 5833 5837 5839 5839 5842 5846 5847 5848 5850 5851 5851 5851 5852 5854 5856 5857 5859 5860 5861 5862 5862 5862 5861 5859 5857 5856 5855 5853 5851 5850 5849 5847 5844 5842
5807 5809 5812 5815 5816 5817 5819 5823 5825 5828 5832 5837 5838 5838 5842 5846 5846 5849 5851 5851 5853 5854 5855 5855 5858 5860 5861 5862 5863 5863 5864 5863 5861 5859 5857 5857 5856 5853 5852 5851 5849 5846 5844
5802 5806 5808 5807 5811 5813 5813 5816 5818 5823 5824 5830 5835 5835 5837 5841 5845 5846 5850 5851 5853 5854 5855 5856 5858 5860 5861 5862 5863 5864 5865 5864 5863 5861 5859 5858 5857 5855 5854 5852 5850 5848 5845
5796 5799 5801 5801 5801 5805 5808 5811 5813 5817 5819 5823 5830 5834 5835 5839 5843 5843 5846 5849 5850 5853 5856 5857 5857 5860 5862 5862 5863 5864 5866 5866 5865 5863 5861 5859 5859 5857 5855 5853 5852 5850 5848
5789 5791 5795 5796 5796 5794 5796 5802 5806 5811 5813 5818 5821 5828 5830 5835 5838 5842 5844 5847 5848 5850 5854 5857 5857 5859 5860 5862 5863 5865 5866 5867 5866 5864 5863 5860 5860 5858 5857 5854 5853 5852 5850
5783 5785 5787 5790 5791 5793 5796 5793 5798 5804 5808 5812 5816 5820 5825 5829 5834 5839 5842 5844 5847 5847 5853 5854 5857 5858 5860 5862 5862 5864 5866 5867 5867 5865 5864 5862 5861 5860 5858 5856 5854 5853 5852
5775 5777 5780 5783 5784 5787 5788 5789 5792 5795 5801 5807 5813 5818 5822 5824 5830 5835 5838 5841 5843 5845 5849 5851 5855 5857 5858 5860 5861 5863 5865 5867 5867 5866 5865 5864 5861 5861 5859 5857 5855 5854 5853
5765 5768 5770 5773 5776 5777 5781 5783 5783 5789 5790 5797 5804 5809 5815 5819 5825 5829 5834 5837 5838 5842 5846 5848 5852 5855 5857 5858 5860 5861 5863 5865 5867 5866 5865 5865 5863 5862 5861 5859 5857 5856 5855
5754 5759 5760 5762 5765 5770 5771 5772 5776 5780 5786 5789 5793 5799 5805 5811 5819 5823 5827 5831 5833 5836 5841 5845 5847 5851 5854 5856 5858 5859 5861 5863 5865 5866 5865 5865 5864 5863 5862 5860 5859 5858 5856
5741 5745 5750 5752 5754 5758 5761 5762 5767 5772 5775 5779 5785 5790 5795 5802 5809 5816 5821 5824 5828 5829 5834 5840 5844 5847 5851 5853 5855 5857 5859 5861 5864 5865 5865 5865 5865 5863 5863 5862 5860 5859 5858
5728 5731 5736 5739 5742 5746 5750 5754 5758 5763 5767 5770 5774 5781 5786 5792 5799 5806 5813 5817 5822 5827 5828 5832 5839 5843 5847 5851 5852 5854 5857 5858 5862 5864 5865 5865 5865 5864 5863 5862 5862 5861 5859
5713 5716 5719 5726 5729 5733 5738 5743 5747 5753 5756 5761 5766 5767 5772 5782 5789 5796 5803 5810 5815 5819 5826 5829 5834 5840 5841 5847 5849 5850 5853 5856 5859 5862 5864 5864 5864 5864 5863 5863 5863 5862 5861
5695 5698 5701 5706 5714 5719 5724 5729 5736 5740 5746 5750 5752 5748 5758 5771 5783 5789 5797 5803 5810 5815 5821 5827 5830 5838 5837 5842 5847 5849 5849 5852 5856 5860 5862 5864 5864 5864 5863 5863 5863 5863 5862
5673 5678 5682 5686 5693 5702 5709 5715 5722 5728 5732 5739 5739 5741 5748 5759 5772 5781 5790 5795 5802 5808 5813 5818 5824 5831 5835 5838 5842 5845 5846 5849 5853 5857 5859 5862 5863 5863 5863 5863 5863 5864 5863
5643 5651 5658 5664 5672 5680 5691 5698 5706 5714 5718 5726 5729 5732 5744 5749 5761 5770 5780 5788 5794 5799 5807 5811 5816 5823 5831 5833 5837 5841 5844 5845 5849 5853 5857 5859 5861 5862 5863 5862 5863 5863 5864
5608 5615 5626 5638 5645 5657 5668 5680 5688 5698 5705 5713 5720 5726 5731 5739 5748 5760 5768 5777 5786 5791 5797 5803 5808 5814 5822 5828 5832 5837 5840 5842 5845 5850 5853 5856 5859 5861 5862 5862 5862 5863 5863
5569 5577 5588 5602 5617 5629 5642 5657 5669 5680 5689 5698 5707 5713 5719 5732 5739 5749 5757 5766 5775 5782 5788 5794 5801 5808 5815 5822 5826 5832 5836 5838 5841 5845 5849 5853 5856 5858 5860 5861 5861 5862 5863
5523 5534 5548 5564 5584 5600 5616 5632 5648 5660 5672 5680 5695 5706 5708 5718 5729 5738 5745 5756 5766 5772 5780 5787 5793 5800 5808 5816 5821 5826 5830 5834 5837 5841 5845 5849 5853 5856 5858 5860 5860 5860 5861
5493 5501 5511 5527 5548 5567 5586 5605 5624 5638 5653 5663 5680 5693 5698 5708 5719 5728 5736 5745 5755 5763 5770 5779 5785 5792 5801 5807 5813 5819 5825 5829 5832 5836 5842 5846 5849 5852 5855 5857 5859 5859 5860
5471 5476 5482 5497 5515 5535 5557 5576 5599 5617 5635 5646 5666 5678 5691 5697 5706 5717 5726 5735 5744 5754 5764 5773 5778 5784 5791 5798 5806 5812 5818 5824 5828 5833 5838 5843 5846 5849 5852 5855 5856 5858 5858
5453 5455 5461 5472 5488 5508 5528 5549 5574 5594 5615 5629 5647 5668 5677 5684 5694 5707 5716 5726 5734 5745 5754 5762 5769 5776 5783 5792 5801 5808 5814 5820 5825 5829 5835 5839 5843 5846 5849 5852 5854 5855 5856
5435 5438 5441 5451 5465 5483 5503 5523 5548 5572 5594 5612 5635 5654 5664 5670 5680 5694 5705 5715 5725 5736 5747 5755 5764 5772 5780 5787 5795 5803 5809 5817 5822 5826 5831 5836 5839 5843 5846 5849 5851 5853 5855
5421 5421 5423 5432 5445 5462 5482 5501 5524 5550 5573 5598 5618 5638 5649 5661 5673 5683 5694 5704 5716 5727 5737 5746 5756 5764 5772 5779 5788 5795 5802 5810 5814 5820 5826 5831 5836 5839 5842 5846 5848 5850 5852
5409 5407 5409 5416 5428 5444 5463 5483 5505 5530 5554 5579 5603 5625 5636 5652 5661 5669 5681 5693 5706 5720 5727 5738 5747 5755 5765 5773 5782 5789 5797 5803 5807 5812 5817 5825 5831 5834 5838 5841 5845 5847 5849
5401 5399 5399 5405 5415 5428 5446 5467 5489 5515 5538 5565 5589 5608 5623 5636 5647 5661 5671 5683 5696 5703 5718 5728 5739 5747 5757 5767 5773 5781 5788 5796 5805 5809 5814 5817 5821 5826 5831 5836 5840 5843 5846